| time (UTC) | temp F | wind direction | speed knots | gust knots | rain 1hr in | rain 24hr in | rain mn in | humidity % | barometer mb |
| 20260507212004 | 55 | 0 | 0.0 | 0.0 | 0.00 | 0.00 | 0.00 | 88 | 1012.0 |
| 20260507211004 | 56 | 0 | 0.0 | 0.0 | 0.00 | 0.00 | 0.00 | 87 | 1011.9 |
| 20260507210005 | 56 | 0 | 0.0 | 0.0 | 0.00 | 0.00 | 0.00 | 86 | 1012.0 |
| 20260507204004 | 57 | 0 | 0.0 | 0.0 | 0.00 | 0.00 | 0.00 | 84 | 1011.8 |
| 20260507202004 | 57 | 0 | 0.0 | 0.0 | 0.00 | 0.00 | 0.00 | 83 | 1011.8 |
| 20260507201005 | 57 | 0 | 0.0 | 0.0 | 0.00 | 0.00 | 0.00 | 83 | 1011.8 |
| 20260507200004 | 58 | 0 | 0.0 | 0.0 | 0.00 | 0.00 | 0.00 | 81 | 1011.6 |
| 20260507195004 | 58 | 0 | 0.0 | 0.0 | 0.00 | 0.00 | 0.00 | 80 | 1011.5 |
| 20260507194006 | 59 | 0 | 0.0 | 0.0 | 0.00 | 0.00 | 0.00 | 79 | 1011.3 |
| 20260507193005 | 59 | 171 | 0.0 | 0.9 | 0.00 | 0.00 | 0.00 | 77 | 1011.3 |
| 20260507192003 | 60 | 194 | 0.0 | 0.9 | 0.00 | 0.00 | 0.00 | 75 | 1011.2 |
| 20260507190005 | 61 | 0 | 0.0 | 0.0 | 0.00 | 0.00 | 0.00 | 73 | 1010.9 |
| 20260507185004 | 62 | 0 | 0.0 | 0.0 | 0.00 | 0.00 | 0.00 | 72 | 1010.9 |
| 20260507184003 | 63 | 165 | 0.0 | 0.9 | 0.00 | 0.00 | 0.00 | 70 | 1010.8 |
| 20260507183005 | 64 | 228 | 0.0 | 1.7 | 0.00 | 0.00 | 0.00 | 67 | 1010.9 |
| 20260507182004 | 64 | 193 | 0.0 | 1.7 | 0.00 | 0.00 | 0.00 | 67 | 1010.8 |
| 20260507181004 | 64 | 217 | 0.9 | 3.5 | 0.00 | 0.00 | 0.00 | 67 | 1010.7 |
| 20260507180005 | 64 | 204 | 0.9 | 3.5 | 0.00 | 0.00 | 0.00 | 67 | 1010.8 |
| 20260507174004 | 65 | 197 | 0.9 | 4.3 | 0.00 | 0.00 | 0.00 | 66 | 1010.6 |
| 20260507173004 | 65 | 192 | 0.9 | 5.2 | 0.00 | 0.00 | 0.00 | 65 | 1010.5 |
| 20260507172004 | 65 | 212 | 0.9 | 5.2 | 0.00 | 0.00 | 0.00 | 64 | 1010.5 |
| 20260507171004 | 66 | 191 | 0.9 | 3.5 | 0.00 | 0.00 | 0.00 | 64 | 1010.5 |
| 20260507170004 | 67 | 183 | 1.7 | 5.2 | 0.00 | 0.00 | 0.00 | 62 | 1010.5 |
| 20260507165004 | 69 | 176 | 0.9 | 5.2 | 0.00 | 0.00 | 0.00 | 61 | 1010.5 |
| 20260507164004 | 69 | 158 | 0.9 | 6.1 | 0.00 | 0.00 | 0.00 | 63 | 1010.5 |
| 20260507163005 | 69 | 193 | 0.9 | 5.2 | 0.00 | 0.00 | 0.00 | 62 | 1010.7 |
| 20260507162003 | 69 | 139 | 0.9 | 6.1 | 0.00 | 0.00 | 0.00 | 62 | 1010.5 |
| 20260507161004 | 69 | 188 | 0.9 | 4.3 | 0.00 | 0.00 | 0.00 | 58 | 1010.5 |
| 20260507155004 | 70 | 103 | 0.9 | 6.1 | 0.00 | 0.00 | 0.00 | 56 | 1010.4 |
| 20260507154004 | 71 | 148 | 0.9 | 5.2 | 0.00 | 0.00 | 0.00 | 55 | 1010.5 |
| 20260507153004 | 72 | 176 | 0.9 | 5.2 | 0.00 | 0.00 | 0.00 | 54 | 1010.4 |
| 20260507152003 | 72 | 156 | 0.9 | 4.3 | 0.00 | 0.00 | 0.00 | 55 | 1010.5 |
| 20260507150005 | 71 | 188 | 1.7 | 6.1 | 0.00 | 0.00 | 0.00 | 54 | 1010.6 |
| 20260507143004 | 71 | 128 | 0.9 | 4.3 | 0.00 | 0.00 | 0.00 | 54 | 1010.9 |
| 20260507142003 | 71 | 164 | 0.9 | 4.3 | 0.00 | 0.00 | 0.00 | 54 | 1010.8 |
| 20260507140004 | 71 | 179 | 1.7 | 7.0 | 0.00 | 0.00 | 0.00 | 55 | 1011.0 |
| 20260507134004 | 70 | 179 | 1.7 | 4.3 | 0.00 | 0.00 | 0.00 | 56 | 1011.4 |
| 20260507133004 | 70 | 163 | 1.7 | 5.2 | 0.00 | 0.00 | 0.00 | 56 | 1011.4 |
| 20260507131003 | 69 | 101 | 0.9 | 3.5 | 0.00 | 0.00 | 0.00 | 57 | 1011.6 |
| 20260507130005 | 70 | 155 | 0.9 | 5.2 | 0.00 | 0.00 | 0.00 | 57 | 1011.6 |
| 20260507125004 | 71 | 133 | 1.7 | 5.2 | 0.00 | 0.00 | 0.00 | 56 | 1011.5 |
| 20260507124003 | 71 | 173 | 1.7 | 5.2 | 0.00 | 0.00 | 0.00 | 58 | 1011.7 |
| 20260507122004 | 70 | 200 | 1.7 | 7.0 | 0.00 | 0.00 | 0.00 | 58 | 1011.8 |
| 20260507121003 | 71 | 192 | 1.7 | 5.2 | 0.00 | 0.00 | 0.00 | 60 | 1011.9 |
| 20260507115004 | 70 | 194 | 1.7 | 7.0 | 0.00 | 0.00 | 0.00 | 60 | 1011.8 |
| 20260507114003 | 70 | 172 | 1.7 | 5.2 | 0.00 | 0.00 | 0.00 | 59 | 1011.9 |
| 20260507113005 | 68 | 199 | 0.9 | 4.3 | 0.00 | 0.00 | 0.00 | 63 | 1012.0 |
| 20260507111004 | 68 | 114 | 0.9 | 2.6 | 0.00 | 0.00 | 0.00 | 58 | 1012.0 |
| 20260507110004 | 68 | 168 | 0.9 | 3.5 | 0.00 | 0.00 | 0.00 | 57 | 1012.2 |
| 20260507105005 | 67 | 216 | 0.9 | 5.2 | 0.00 | 0.00 | 0.00 | 58 | 1012.2 |
| 20260507103005 | 69 | 121 | 0.9 | 3.5 | 0.00 | 0.00 | 0.00 | 53 | 1012.2 |
| 20260507102003 | 67 | 70 | 0.9 | 3.5 | 0.00 | 0.00 | 0.00 | 54 | 1012.3 |
| 20260507101004 | 66 | 49 | 0.9 | 2.6 | 0.00 | 0.00 | 0.00 | 58 | 1012.5 |
| 20260507100004 | 67 | 29 | 0.9 | 4.3 | 0.00 | 0.00 | 0.00 | 58 | 1012.6 |
| 20260507095004 | 67 | 72 | 0.9 | 4.3 | 0.00 | 0.00 | 0.00 | 58 | 1012.5 |
| 20260507094004 | 68 | 72 | 1.7 | 6.1 | 0.00 | 0.00 | 0.00 | 57 | 1012.6 |
| 20260507090005 | 65 | 39 | 0.9 | 4.3 | 0.00 | 0.00 | 0.00 | 61 | 1012.5 |
| 20260507085003 | 64 | 62 | 1.7 | 7.0 | 0.00 | 0.00 | 0.00 | 63 | 1012.5 |
| 20260507084004 | 64 | 72 | 0.9 | 3.5 | 0.00 | 0.00 | 0.00 | 65 | 1012.3 |
| 20260507082004 | 64 | 60 | 0.9 | 4.3 | 0.00 | 0.00 | 0.00 | 65 | 1012.4 |
| 20260507081004 | 63 | 64 | 1.7 | 6.1 | 0.00 | 0.00 | 0.00 | 66 | 1012.4 |
| 20260507074004 | 62 | 77 | 0.9 | 3.5 | 0.00 | 0.00 | 0.00 | 67 | 1012.4 |
| 20260507073005 | 63 | 131 | 0.0 | 1.7 | 0.00 | 0.00 | 0.00 | 66 | 1012.4 |
| 20260507072004 | 62 | 72 | 0.0 | 1.7 | 0.00 | 0.00 | 0.00 | 69 | 1012.4 |
| 20260507071004 | 61 | 68 | 0.0 | 1.7 | 0.00 | 0.00 | 0.00 | 70 | 1012.3 |
| 20260507070009 | 60 | 56 | 0.9 | 2.6 | 0.00 | 0.00 | 0.00 | 71 | 1012.4 |
| 20260507065006 | 61 | 60 | 0.0 | 1.7 | 0.00 | 0.00 | 0.00 | 71 | 1012.4 |
| 20260507064004 | 60 | 58 | 0.0 | 1.7 | 0.00 | 0.00 | 0.00 | 74 | 1012.3 |
| 20260507063004 | 59 | 56 | 0.0 | 1.7 | 0.00 | 0.00 | 0.00 | 76 | 1012.3 |
| 20260507062004 | 57 | 346 | 0.0 | 0.9 | 0.00 | 0.00 | 0.00 | 79 | 1012.3 |
| 20260507061004 | 56 | 327 | 0.0 | 0.9 | 0.00 | 0.00 | 0.00 | 81 | 1012.3 |
| 20260507060004 | 55 | 26 | 0.0 | 0.9 | 0.00 | 0.00 | 0.00 | 82 | 1012.3 |
| 20260507054004 | 52 | 298 | 0.0 | 1.7 | 0.00 | 0.00 | 0.00 | 86 | 1012.1 |
| 20260507052004 | 50 | 0 | 0.0 | 0.0 | 0.00 | 0.00 | 0.00 | 90 | 1011.9 |
| 20260507050005 | 48 | 0 | 0.0 | 0.0 | 0.00 | 0.00 | 0.00 | 91 | 1011.9 |
| 20260507045004 | 48 | 0 | 0.0 | 0.0 | 0.00 | 0.00 | 0.00 | 91 | 1011.8 |
| 20260507044003 | 48 | 0 | 0.0 | 0.0 | 0.00 | 0.00 | 0.00 | 91 | 1011.7 |
| 20260507042004 | 49 | 0 | 0.0 | 0.0 | 0.00 | 0.00 | 0.00 | 90 | 1011.6 |
| 20260507040004 | 49 | 0 | 0.0 | 0.0 | 0.00 | 0.00 | 0.00 | 89 | 1011.7 |
| 20260507035004 | 50 | 0 | 0.0 | 0.0 | 0.00 | 0.00 | 0.00 | 88 | 1011.7 |
| 20260507034004 | 50 | 329 | 0.0 | 0.9 | 0.00 | 0.00 | 0.00 | 88 | 1011.5 |
| 20260507033004 | 51 | 329 | 0.0 | 0.9 | 0.00 | 0.00 | 0.00 | 88 | 1011.6 |
| 20260507032003 | 51 | 0 | 0.0 | 0.0 | 0.00 | 0.00 | 0.00 | 86 | 1011.6 |
| 20260507031004 | 52 | 0 | 0.0 | 0.0 | 0.00 | 0.00 | 0.00 | 85 | 1011.5 |
| 20260507030004 | 52 | 0 | 0.0 | 0.0 | 0.00 | 0.00 | 0.00 | 84 | 1011.6 |
| 20260507025004 | 53 | 312 | 0.0 | 1.7 | 0.00 | 0.00 | 0.00 | 83 | 1011.4 |
| 20260507024003 | 53 | 316 | 0.0 | 1.7 | 0.00 | 0.00 | 0.00 | 82 | 1011.4 |
| 20260507023005 | 53 | 329 | 0.0 | 0.9 | 0.00 | 0.00 | 0.00 | 82 | 1011.3 |
| 20260507022004 | 53 | 330 | 0.0 | 1.7 | 0.00 | 0.00 | 0.00 | 83 | 1011.4 |
| 20260507021004 | 53 | 0 | 0.0 | 0.0 | 0.00 | 0.00 | 0.00 | 83 | 1011.4 |
| 20260507020004 | 53 | 336 | 0.0 | 0.9 | 0.00 | 0.00 | 0.00 | 82 | 1011.4 |
| 20260507015004 | 54 | 311 | 0.0 | 0.9 | 0.00 | 0.00 | 0.00 | 81 | 1011.4 |
| 20260507014004 | 54 | 304 | 0.0 | 2.6 | 0.00 | 0.00 | 0.00 | 82 | 1011.5 |
| 20260507013004 | 54 | 311 | 0.0 | 1.7 | 0.00 | 0.00 | 0.00 | 82 | 1011.3 |
| 20260507012004 | 53 | 306 | 0.0 | 1.7 | 0.00 | 0.00 | 0.00 | 84 | 1011.4 |
| 20260507011003 | 53 | 354 | 0.0 | 0.9 | 0.00 | 0.00 | 0.00 | 84 | 1011.8 |
| 20260507005004 | 53 | 94 | 0.0 | 0.9 | 0.00 | 0.00 | 0.00 | 84 | 1011.6 |
| 20260507004005 | 53 | 321 | 0.0 | 1.7 | 0.00 | 0.00 | 0.00 | 83 | 1011.7 |
| 20260507003004 | 54 | 349 | 0.0 | 3.5 | 0.00 | 0.00 | 0.00 | 82 | 1011.8 |
| 20260507002004 | 54 | 312 | 0.0 | 3.5 | 0.00 | 0.00 | 0.00 | 81 | 1011.9 |
| 20260507001003 | 53 | 301 | 0.0 | 1.7 | 0.00 | 0.00 | 0.00 | 82 | 1011.8 |
| 20260507000004 | 54 | 289 | 0.0 | 1.7 | 0.00 | 0.00 | 0.00 | 82 | 1012.0 |
| 20260506235003 | 54 | 307 | 0.0 | 0.9 | 0.00 | 0.00 | 0.00 | 82 | 1012.1 |
| 20260506234004 | 54 | 335 | 0.0 | 0.9 | 0.00 | 0.00 | 0.00 | 81 | 1012.1 |
| 20260506233005 | 54 | 310 | 0.0 | 2.6 | 0.00 | 0.00 | 0.00 | 80 | 1012.1 |
| 20260506232003 | 55 | 319 | 0.0 | 3.5 | 0.00 | 0.00 | 0.00 | 80 | 1012.1 |
| 20260506231004 | 55 | 311 | 0.0 | 4.3 | 0.00 | 0.00 | 0.00 | 79 | 1012.2 |
| 20260506230004 | 55 | 306 | 0.0 | 2.6 | 0.00 | 0.00 | 0.00 | 79 | 1012.0 |
| 20260506225004 | 55 | 324 | 0.0 | 2.6 | 0.00 | 0.01 | 0.00 | 78 | 1011.9 |
| 20260506224004 | 55 | 315 | 0.0 | 2.6 | 0.00 | 0.01 | 0.00 | 78 | 1011.8 |
| 20260506223004 | 56 | 308 | 0.9 | 3.5 | 0.00 | 0.02 | 0.00 | 77 | 1011.8 |
| 20260506222004 | 56 | 306 | 0.9 | 3.5 | 0.00 | 0.03 | 0.00 | 76 | 1011.7 |
| 20260506221004 | 56 | 312 | 0.0 | 3.5 | 0.00 | 0.06 | 0.00 | 76 | 1011.7 |
| 20260506220008 | 56 | 310 | 0.0 | 2.6 | 0.00 | 0.10 | 0.00 | 76 | 1011.6 |
| 20260506215003 | 56 | 261 | 0.0 | 0.9 | 0.00 | 0.13 | 0.10 | 77 | 1011.5 |